Date String (YYYY-MM-DD hh:mm:ss) UTC,Instrument flags,absolute air pressure of the measurement (hPa),sample flow rate (lpm),inlet stack bypass flow (lpm),air temperature of the measurement (°C),ambient temperature measured by the external sensor (°C),aerosol sample conditioner tube jacket temperature (°C),OPC LED temperature (°C),internal box temperature (°C),relative humidity of the measurement (%),span deviation,mass concentration of particles derived from Lorenz-Mie calculation of OPC scattering (μg/m³),mass concentration of particles derived from Lorenz-Mie calculation of OPC scattering (μg/m³),mass concentration of particles derived from Lorenz-Mie calculation of OPC scattering (μg/m³)
DateTimeUTC,F1_M11,P_M11,Q1_M11,Q2_M11,T1_M11,T2_M11,T3_M11,T4_M11,T5_M11,U1_M11,ZSPAN_M11,X0_M11,X2_M11,X1_M11
2024-01-21 21:00:00,SystemResetWarning,0820.3,5.01,000.00,021.9,021.1,000.0,030.3,023.1,19.5,0000.0,0005.11,0001.73,0001.49
2024-01-21 21:01:00,SystemResetWarning,0820.3,5.00,000.00,021.9,021.1,000.0,030.3,023.0,19.5,0000.0,0006.41,0002.21,0001.92
2024-01-21 21:02:00,SystemResetWarning,0820.3,4.99,000.00,021.9,021.1,000.0,030.3,023.1,19.5,0000.0,0007.32,0002.52,0002.19
2024-01-21 21:03:00,SystemResetWarning,0820.3,4.99,000.00,021.8,021.1,000.0,030.3,023.1,19.3,0000.0,0008.75,0002.97,0002.59
2024-01-21 21:04:00,SystemResetWarning,0820.3,5.00,000.00,021.9,021.1,000.0,030.3,023.1,19.3,0000.0,0009.55,0003.41,0003.13
2024-01-21 21:05:00,SystemResetWarning,0820.3,5.00,000.00,021.9,021.2,000.0,030.3,023.1,19.4,0000.0,0010.21,0003.81,0003.49
2024-01-21 21:06:00,SystemResetWarning,0820.3,5.02,000.00,021.9,021.2,000.0,030.3,023.2,19.4,0000.0,0011.03,0004.14,0003.76
2024-01-21 21:07:00,SystemResetWarning,0820.3,5.00,000.00,021.9,021.2,000.0,030.3,023.1,19.6,0000.0,0011.73,0004.44,0004.02
2024-01-21 21:08:00,SystemResetWarning,0820.4,4.99,000.00,021.9,021.2,000.0,030.3,023.2,19.5,0002.1,0011.88,0004.77,0004.31
2024-01-21 21:09:00,SystemResetWarning,0820.4,5.00,000.00,021.9,021.3,000.0,030.3,023.2,19.6,0002.0,0012.38,0005.13,0004.62
2024-01-21 21:10:00,SystemResetWarning,0820.4,5.00,000.00,021.9,021.3,000.0,030.3,023.2,19.5,0002.1,0012.26,0005.49,0004.93
2024-01-21 21:11:00,SystemResetWarning,0820.3,5.01,000.00,021.9,021.3,000.0,030.3,023.2,19.5,0002.1,0012.51,0005.80,0005.18
2024-01-21 21:12:00,SystemResetWarning,0820.4,4.99,000.00,021.9,021.3,000.0,030.3,023.2,19.4,0002.6,0012.92,0006.13,0005.46
2024-01-21 21:13:00,SystemResetWarning,0820.4,4.99,000.00,021.9,021.3,000.0,030.3,023.2,19.4,0002.5,0013.43,0006.56,0005.87
2024-01-21 21:14:00,SystemResetWarning,0820.3,5.00,000.00,021.9,021.3,000.0,030.3,023.2,19.5,0002.6,0013.04,0007.02,0006.32
2024-01-21 21:15:00,SystemResetWarning,0820.4,5.01,000.00,021.9,021.3,000.0,030.3,023.2,19.2,0003.3,0013.44,0007.49,0006.75
2024-01-21 21:16:00,SystemResetWarning,0820.3,5.01,000.00,021.9,021.3,000.0,030.3,023.2,19.4,0003.7,0014.20,0007.99,0007.19
2024-01-21 21:17:00,SystemResetWarning,0820.3,4.99,000.00,022.0,021.3,000.0,030.3,023.2,19.5,0003.9,0015.13,0008.59,0007.76
2024-01-21 21:18:00,SystemResetWarning,0820.3,4.99,000.00,022.0,021.3,000.0,030.3,023.3,19.5,0003.7,0016.79,0009.17,0008.27
2024-01-21 21:19:00,SystemResetWarning,0820.3,4.99,000.00,022.0,021.4,000.0,030.3,023.3,19.4,0003.4,0018.25,0009.92,0008.89
2024-01-21 21:20:00,SystemResetWarning,0820.3,5.00,000.00,022.0,021.4,000.0,030.3,023.3,19.0,0003.6,0020.12,0010.60,0009.49
2024-01-21 21:21:00,SystemResetWarning,0820.4,5.00,000.00,022.0,021.4,000.0,030.3,023.3,19.2,0003.4,0021.40,0011.33,0010.11
2024-01-21 21:22:00,SystemResetWarning,0820.5,5.01,000.00,022.0,021.4,000.0,030.3,023.3,19.2,0003.6,0022.31,0011.96,0010.65
2024-01-21 21:23:00,SystemResetWarning,0820.5,5.01,000.00,022.0,021.4,000.0,030.3,023.3,19.2,0003.4,0023.11,0012.46,0011.08
2024-01-21 21:24:00,SystemResetWarning,0820.5,5.00,000.00,022.0,021.4,000.0,030.3,023.2,18.8,0003.4,0024.14,0012.89,0011.44
2024-01-21 21:25:00,SystemResetWarning,0820.6,5.00,000.00,022.0,021.3,000.0,030.3,023.2,18.8,0003.3,0025.15,0013.29,0011.72
2024-01-21 21:26:00,SystemResetWarning,0820.5,5.00,000.00,022.0,021.3,000.0,030.3,023.2,18.8,0003.2,0025.87,0013.53,0011.92
2024-01-21 21:27:00,SystemResetWarning,0820.4,4.99,000.00,022.0,021.3,000.0,030.3,023.2,19.2,0003.3,0026.32,0013.65,0012.02
2024-01-21 21:28:00,SystemResetWarning,0820.8,4.99,000.00,022.0,021.4,000.0,030.4,023.3,18.9,0003.1,0026.33,0013.77,0012.08
2024-01-21 21:29:00,SystemResetWarning,0820.7,5.00,000.00,022.0,021.4,000.0,030.4,023.3,18.6,0003.3,0026.14,0013.87,0012.16
2024-01-21 21:30:00,SystemResetWarning,0820.5,5.00,000.00,022.0,021.4,000.0,030.4,023.3,18.4,0003.5,0025.81,0013.88,0012.19
2024-01-21 21:31:00,SystemResetWarning,0820.8,5.00,000.00,022.0,021.4,000.0,030.4,023.3,18.4,0003.4,0024.97,0013.92,0012.20
2024-01-21 21:32:00,SystemResetWarning,0820.7,5.00,000.00,022.0,021.4,000.0,030.4,023.3,18.6,0003.5,0024.65,0013.88,0012.19
2024-01-21 21:33:00,SystemResetWarning,0820.7,5.00,000.00,022.0,021.4,000.0,030.4,023.3,18.5,0003.3,0025.69,0013.84,0012.18
2024-01-21 21:34:00,SystemResetWarning,0820.8,5.00,000.00,022.0,021.4,000.0,030.4,023.3,18.6,0003.4,0025.79,0013.79,0012.18
2024-01-21 21:35:00,SystemResetWarning,0820.9,5.00,000.00,022.0,021.4,000.0,030.4,023.3,18.6,0003.7,0025.17,0013.82,0012.19
2024-01-21 21:36:00,SystemResetWarning,0820.8,5.00,000.00,022.0,021.5,000.0,030.4,023.4,18.6,0004.0,0025.19,0013.83,0012.21
2024-01-21 21:37:00,SystemResetWarning,0820.6,5.00,000.00,022.0,021.5,000.0,030.4,023.4,18.7,0004.0,0025.44,0013.77,0012.14
2024-01-21 21:38:00,SystemResetWarning,0820.6,5.00,000.00,022.1,021.5,000.0,030.4,023.4,18.8,0003.7,0025.99,0013.84,0012.16
2024-01-21 21:39:00,SystemResetWarning,0820.7,5.00,000.00,022.1,021.5,000.0,030.4,023.4,18.8,0003.7,0026.24,0013.85,0012.17
2024-01-21 21:40:00,SystemResetWarning,0820.5,5.00,000.00,022.1,021.5,000.0,030.4,023.4,18.8,0003.4,0027.26,0013.83,0012.15
2024-01-21 21:41:00,SystemResetWarning,0820.5,4.99,000.00,022.1,021.5,000.0,030.4,023.4,18.9,0003.6,0026.92,0013.74,0012.07
2024-01-21 21:42:00,SystemResetWarning,0820.5,5.00,000.00,022.1,021.5,000.0,030.4,023.4,19.0,0003.4,0028.39,0013.67,0012.01
2024-01-21 21:43:00,SystemResetWarning,0820.7,5.00,000.00,022.1,021.5,000.0,030.4,023.5,18.8,0003.4,0028.96,0013.68,0011.97
2024-01-21 21:44:00,SystemResetWarning,0820.6,5.00,000.00,022.1,021.5,000.0,030.4,023.5,18.7,0003.3,0027.98,0013.68,0011.97
2024-01-21 21:45:00,SystemResetWarning,0820.7,5.00,000.00,022.1,021.5,000.0,030.4,023.5,18.8,0003.3,0028.44,0013.59,0011.89
2024-01-21 21:46:00,SystemResetWarning,0820.5,5.00,000.00,022.1,021.5,000.0,030.4,023.5,18.8,0003.2,0028.51,0013.41,0011.75
2024-01-21 21:47:00,SystemResetWarning,0820.5,5.00,000.00,022.1,021.5,000.0,030.5,023.5,18.8,0003.0,0028.63,0013.25,0011.62
2024-01-21 21:48:00,SystemResetWarning,0820.7,5.00,000.00,022.1,021.5,000.0,030.5,023.5,18.8,0003.0,0028.56,0013.29,0011.65
2024-01-21 21:49:00,SystemResetWarning,0820.7,4.99,000.00,022.1,021.5,000.0,030.5,023.4,18.7,0002.9,0027.73,0013.11,0011.56
2024-01-21 21:50:00,SystemResetWarning,0820.6,5.00,000.00,022.1,021.5,000.0,030.5,023.4,19.0,0002.7,0028.72,0012.91,0011.42
2024-01-21 21:51:00,SystemResetWarning,0820.6,5.00,000.00,022.2,021.6,000.0,030.5,023.5,19.1,0002.6,0026.76,0012.67,0011.27
2024-01-21 21:52:00,SystemResetWarning,0820.7,5.00,000.00,022.2,021.6,000.0,030.5,023.5,19.1,0002.5,0027.05,0012.58,0011.22
2024-01-21 21:53:00,SystemResetWarning,0820.4,5.00,000.00,022.2,021.6,000.0,030.5,023.5,19.2,0002.7,0025.85,0012.50,0011.20
2024-01-21 21:54:00,SystemResetWarning,0820.6,5.00,000.00,022.2,021.5,000.0,030.5,023.5,19.4,0002.8,0024.36,0012.39,0011.16
2024-01-21 21:55:00,SystemResetWarning,0820.6,5.01,000.00,022.2,021.5,000.0,030.5,023.5,19.4,0002.6,0024.21,0012.30,0011.12
2024-01-21 21:56:00,SystemResetWarning,0820.5,5.01,000.00,022.2,021.6,000.0,030.5,023.5,19.3,0002.5,0023.93,0012.33,0011.13
2024-01-21 21:57:00,SystemResetWarning,0820.5,4.99,000.00,022.2,021.6,000.0,030.5,023.5,19.2,0002.3,0023.28,0012.43,0011.23
2024-01-21 21:58:00,SystemResetWarning,0820.6,4.99,000.00,022.2,021.6,000.0,030.5,023.5,19.3,0002.4,0022.96,0012.54,0011.34
2024-01-21 21:59:00,SystemResetWarning,0820.5,5.02,000.00,022.2,021.6,000.0,030.5,023.5,19.6,0002.5,0021.92,0012.61,0011.42
